Location: Unspecified
(0.0000°N, 0.0000°E)
Time: 02:20:05
(UTC+00:00)

Vanguard 3 - Pass Details

Date: 17 December 2017
Orbit: 508 x 3264 km, 33.4° (Epoch: 20 January)

Event Time Altitude Azimuth Distance (km) Brightness Sun altitude
Rises 04:58:52 0° 225° (SW) 7,235 11.8 -13.1°
Reaches altitude 10° 05:04:25 10° 218° (SW) 6,141 11.5 -11.8°
Maximum altitude 05:21:48 44° 152° (SSE) 3,264 10.7 -7.9°
Drops below altitude 10° 05:33:16 10° 84° (E) 4,187 11.9 -5.2°
Sets 05:36:12 0° 77° (ENE) 4,847 12.1 -4.6°
